Location: Unspecified
(0.0000°N, 0.0000°E)
Time: 04:24:14
(UTC+00:00)

STARLINK-1062 - Pass Details

Date: 24 January 2020
Orbit: 548 x 551 km, 53.0° (Epoch: 02 December)

Event Time Altitude Azimuth Distance (km) Brightness Sun altitude
Exits shadow 04:56:35 29° 336° (NNW) 1,003 4.5 -17.7°
Drops below altitude 10° 04:59:12 10° 10° (N) 1,783 6.1 -17.1°
Sets 05:01:34 0° 19° (NNE) 2,671 7.1 -16.6°
